�������l�o���
Date,Time,MP-1(��Sv/h),MP-2(��Sv/h),MP-3(��Sv/h),MP-4(��Sv/h),MP-5(��Sv/h),MP-6(��Sv/h),MP-7(��Sv/h),MP-8(��Sv/h),����,����(m/s),���J
2024/03/16,00:00,0.504,0.764,0.483,0.948,0.674,0.313,0.549,0.517,�k��,4.2,��
2024/03/16,00:10,0.504,0.763,0.481,0.947,0.676,0.313,0.552,0.518,�k,2.3,��
2024/03/16,00:20,0.504,0.763,0.483,0.948,0.676,0.311,0.551,0.518,�k�k��,2.6,��
2024/03/16,00:30,0.504,0.764,0.482,0.949,0.675,0.312,0.551,0.518,�k�k��,5.4,��
2024/03/16,00:40,0.505,0.764,0.484,0.950,0.675,0.312,0.551,0.519,�k��,5.2,��
2024/03/16,00:50,0.504,0.765,0.483,0.949,0.674,0.313,0.552,0.519,�k��,6.1,��
2024/03/16,01:00,0.504,0.764,0.483,0.949,0.673,0.312,0.552,0.519,�k�k��,5.5,��
2024/03/16,01:10,0.503,0.764,0.484,0.949,0.676,0.311,0.552,0.518,�k�k��,5.0,��
2024/03/16,01:20,0.503,0.763,0.482,0.947,0.676,0.311,0.550,0.518,�k��,5.7,��
2024/03/16,01:30,0.503,0.765,0.482,0.949,0.674,0.312,0.552,0.517,�k��,4.9,��
2024/03/16,01:40,0.505,0.763,0.482,0.947,0.675,0.313,0.552,0.519,�k��,3.8,��
2024/03/16,01:50,0.506,0.763,0.482,0.950,0.676,0.312,0.554,0.518,�k�k��,7.2,��
2024/03/16,02:00,0.505,0.764,0.482,0.949,0.675,0.312,0.551,0.519,�k�k��,5.6,��
2024/03/16,02:10,0.504,0.765,0.484,0.949,0.675,0.312,0.551,0.518,�k��,6.9,��
2024/03/16,02:20,0.505,0.763,0.481,0.947,0.675,0.312,0.552,0.518,�k�k��,5.5,��
2024/03/16,02:30,0.504,0.767,0.484,0.949,0.674,0.311,0.552,0.517,�k�k��,7.9,��
2024/03/16,02:40,0.506,0.763,0.483,0.950,0.673,0.311,0.552,0.517,�k��,6.3,��
2024/03/16,02:50,0.505,0.764,0.482,0.949,0.676,0.311,0.551,0.518,�k��,8.7,��
2024/03/16,03:00,0.505,0.764,0.480,0.949,0.676,0.312,0.552,0.519,�k�k��,8.4,��
2024/03/16,03:10,0.505,0.764,0.483,0.948,0.674,0.311,0.552,0.517,�k��,8.7,��
2024/03/16,03:20,0.505,0.764,0.483,0.949,0.676,0.311,0.552,0.516,�k��,11.3,��
2024/03/16,03:30,0.504,0.763,0.482,0.950,0.676,0.311,0.551,0.517,�k�k��,10.9,��
2024/03/16,03:40,0.505,0.766,0.483,0.950,0.674,0.312,0.553,0.517,�k��,8.6,��
2024/03/16,03:50,0.504,0.764,0.483,0.952,0.674,0.312,0.552,0.516,�k��,10.3,��
2024/03/16,04:00,0.503,0.763,0.481,0.949,0.674,0.310,0.551,0.516,�k��,9.2,��
2024/03/16,04:10,0.506,0.764,0.483,0.949,0.675,0.312,0.549,0.516,�k��,8.5,��
2024/03/16,04:20,0.503,0.765,0.483,0.950,0.674,0.312,0.551,0.517,�k��,5.9,��
2024/03/16,04:30,0.504,0.764,0.483,0.949,0.676,0.311,0.551,0.518,�k�k��,4.9,��
2024/03/16,04:40,0.504,0.763,0.482,0.947,0.676,0.312,0.553,0.517,�k�k��,4.0,��
2024/03/16,04:50,0.503,0.762,0.480,0.951,0.675,0.312,0.552,0.517,�k,3.2,��
2024/03/16,05:00,0.502,0.763,0.481,0.948,0.674,0.311,0.551,0.516,�k,3.9,��
2024/03/16,05:10,0.504,0.764,0.482,0.948,0.673,0.311,0.550,0.517,�k�k��,6.2,��
2024/03/16,05:20,0.503,0.767,0.482,0.951,0.674,0.312,0.550,0.518,�k�k��,9.0,��
2024/03/16,05:30,0.502,0.764,0.483,0.953,0.674,0.310,0.551,0.515,�k�k��,10.9,��
2024/03/16,05:40,0.503,0.764,0.484,0.951,0.674,0.313,0.551,0.517,�k�k��,10.2,��
2024/03/16,05:50,0.503,0.764,0.482,0.949,0.676,0.311,0.550,0.517,�k�k��,9.8,��
2024/03/16,06:00,0.502,0.763,0.482,0.950,0.675,0.312,0.551,0.516,�k��,11.7,��
2024/03/16,06:10,0.504,0.764,0.483,0.949,0.676,0.312,0.551,0.517,�k��,10.5,��
2024/03/16,06:20,0.503,0.763,0.484,0.949,0.676,0.312,0.552,0.517,�k��,8.0,��
2024/03/16,06:30,0.504,0.764,0.483,0.951,0.674,0.310,0.551,0.516,�k��,5.2,��
2024/03/16,06:40,0.505,0.766,0.483,0.951,0.675,0.313,0.551,0.517,�k��,5.7,��
2024/03/16,06:50,0.503,0.765,0.482,0.950,0.675,0.312,0.550,0.517,�k��,5.6,��
2024/03/16,07:00,0.506,0.765,0.484,0.952,0.676,0.312,0.551,0.518,�k�k��,4.4,��
2024/03/16,07:10,0.504,0.765,0.482,0.950,0.674,0.311,0.551,0.516,�k��,5.3,��
2024/03/16,07:20,0.504,0.766,0.482,0.951,0.674,0.311,0.550,0.517,�k��,5.1,��
2024/03/16,07:30,0.506,0.766,0.481,0.951,0.675,0.311,0.551,0.517,�k��,6.6,��
2024/03/16,07:40,0.505,0.766,0.482,0.951,0.676,0.310,0.551,0.517,�k��,6.2,��
2024/03/16,07:50,0.503,0.765,0.482,0.951,0.674,0.312,0.551,0.516,�k��,4.7,��
2024/03/16,08:00,0.506,0.766,0.481,0.951,0.674,0.312,0.551,0.517,�k��,7.0,��
2024/03/16,08:10,0.504,0.765,0.482,0.950,0.676,0.312,0.551,0.516,�k�k��,6.9,��
2024/03/16,08:20,0.504,0.766,0.482,0.953,0.676,0.311,0.550,0.516,�k�k��,5.7,��
2024/03/16,08:30,0.504,0.763,0.483,0.952,0.676,0.312,0.551,0.518,�k�k��,7.3,��
2024/03/16,08:40,0.505,0.765,0.482,0.951,0.676,0.312,0.550,0.518,�k�k��,7.7,��
2024/03/16,08:50,0.504,0.767,0.483,0.951,0.676,0.310,0.549,0.517,�k�k��,7.5,��
2024/03/16,09:00,0.504,0.765,0.483,0.951,0.676,0.311,0.549,0.518,�k�k��,8.2,��
2024/03/16,09:10,0.504,0.764,0.483,0.952,0.674,0.312,0.549,0.518,�k�k��,7.4,��
2024/03/16,09:20,0.503,0.765,0.482,0.951,0.674,0.312,0.552,0.518,�k�k��,8.4,��
2024/03/16,09:30,0.505,0.763,0.482,0.950,0.677,0.313,0.550,0.516,�k�k��,9.2,��
2024/03/16,09:40,0.504,0.762,0.483,0.952,0.678,0.311,0.550,0.517,�k�k��,5.9,��
2024/03/16,09:50,0.504,0.764,0.482,0.952,0.677,0.313,0.551,0.516,�k�k��,6.2,��
2024/03/16,10:00,0.504,0.763,0.483,0.952,0.677,0.312,0.549,0.516,�k�k��,6.6,��
2024/03/16,10:10,0.504,0.763,0.483,0.955,0.678,0.313,0.549,0.515,�k�k��,6.8,��
2024/03/16,10:20,0.502,0.764,0.484,0.954,0.677,0.313,0.549,0.516,�k��,6.8,��
2024/03/16,10:30,0.504,0.764,0.485,0.954,0.676,0.311,0.549,0.515,�k�k��,6.9,��
2024/03/16,10:40,0.504,0.763,0.484,0.956,0.676,0.311,0.550,0.515,�k�k��,5.4,��
2024/03/16,10:50,0.503,0.766,0.483,0.953,0.676,0.311,0.550,0.516,�k�k��,9.6,��
2024/03/16,11:00,0.503,0.764,0.483,0.954,0.675,0.311,0.550,0.515,�k�k��,8.7,��
2024/03/16,11:10,0.503,0.765,0.482,0.950,0.675,0.311,0.550,0.516,�k�k��,9.2,��
2024/03/16,11:20,0.502,0.766,0.482,0.953,0.675,0.310,0.549,0.516,�k�k��,6.3,��
2024/03/16,11:30,0.504,0.764,0.483,0.955,0.676,0.311,0.550,0.515,�k��,5.0,��
2024/03/16,11:40,0.505,0.765,0.482,0.953,0.677,0.310,0.549,0.515,�k��,4.9,��
2024/03/16,11:50,0.505,0.765,0.482,0.954,0.677,0.308,0.548,0.516,�k��,4.2,��
2024/03/16,12:00,0.506,0.765,0.483,0.953,0.675,0.311,0.549,0.514,�k��,5.4,��
2024/03/16,12:10,0.504,0.766,0.483,0.952,0.677,0.310,0.550,0.516,�k��,5.0,��
2024/03/16,12:20,0.505,0.767,0.483,0.955,0.677,0.310,0.551,0.515,�k��,5.2,��
2024/03/16,12:30,0.502,0.765,0.481,0.953,0.678,0.312,0.551,0.514,�k��,4.7,��
2024/03/16,12:40,0.505,0.766,0.482,0.955,0.676,0.312,0.549,0.514,�k��,4.3,��
2024/03/16,12:50,0.505,0.768,0.481,0.955,0.675,0.312,0.549,0.515,���k��,4.0,��
2024/03/16,13:00,0.505,0.766,0.482,0.954,0.676,0.313,0.550,0.516,���k��,4.0,��
2024/03/16,13:10,0.503,0.768,0.480,0.953,0.675,0.313,0.549,0.516,���k��,4.2,��
2024/03/16,13:20,0.504,0.765,0.482,0.954,0.678,0.313,0.550,0.516,���k��,3.9,��
2024/03/16,13:30,0.504,0.766,0.482,0.953,0.677,0.313,0.550,0.515,���k��,3.7,��
2024/03/16,13:40,0.504,0.766,0.481,0.955,0.678,0.313,0.548,0.515,���k��,4.0,��
2024/03/16,13:50,0.505,0.766,0.481,0.953,0.678,0.313,0.550,0.516,���쓌,3.7,��
2024/03/16,14:00,0.505,0.767,0.482,0.954,0.678,0.312,0.550,0.514,���쓌,3.4,��
2024/03/16,14:10,0.505,0.766,0.482,0.953,0.679,0.313,0.549,0.515,���쓌,2.6,��
2024/03/16,14:20,0.505,0.766,0.481,0.956,0.679,0.312,0.549,0.516,��,2.6,��
2024/03/16,14:30,0.504,0.766,0.482,0.954,0.678,0.311,0.551,0.514,���k��,2.0,��
2024/03/16,14:40,0.505,0.764,0.482,0.956,0.680,0.311,0.549,0.515,���k��,3.1,��
2024/03/16,14:50,0.504,0.766,0.481,0.954,0.678,0.313,0.550,0.515,��,3.4,��
2024/03/16,15:00,0.505,0.766,0.481,0.953,0.677,0.313,0.549,0.515,��,3.2,��
2024/03/16,15:10,0.505,0.769,0.482,0.955,0.678,0.313,0.549,0.515,���k��,3.5,��
2024/03/16,15:20,0.505,0.769,0.482,0.954,0.677,0.311,0.550,0.516,��,3.5,��
2024/03/16,15:30,0.506,0.768,0.482,0.953,0.679,0.313,0.548,0.515,��,3.2,��
2024/03/16,15:40,0.503,0.770,0.482,0.955,0.679,0.312,0.550,0.514,���k��,2.3,��
2024/03/16,15:50,0.504,0.768,0.480,0.954,0.678,0.311,0.549,0.515,���k��,2.5,��
2024/03/16,16:00,0.504,0.770,0.483,0.953,0.677,0.312,0.550,0.514,���k��,2.6,��
2024/03/16,16:10,0.505,0.769,0.483,0.955,0.678,0.312,0.549,0.516,���k��,2.6,��
2024/03/16,16:20,0.504,0.768,0.482,0.953,0.680,0.314,0.548,0.515,���k��,2.3,��
2024/03/16,16:30,0.506,0.769,0.483,0.953,0.678,0.313,0.549,0.515,���k��,2.0,��
2024/03/16,16:40,0.504,0.769,0.484,0.955,0.678,0.312,0.550,0.516,���쓌,2.2,��
2024/03/16,16:50,0.504,0.770,0.483,0.953,0.679,0.312,0.548,0.518,�쓌,1.9,��
2024/03/16,17:00,0.506,0.769,0.483,0.952,0.678,0.312,0.550,0.516,��쓌,2.6,��
2024/03/16,17:10,0.507,0.769,0.484,0.954,0.677,0.313,0.550,0.518,��쓌,3.5,��
2024/03/16,17:20,0.504,0.771,0.482,0.954,0.676,0.313,0.550,0.517,��쓌,2.9,��
2024/03/16,17:30,0.507,0.771,0.483,0.952,0.677,0.312,0.549,0.518,��쓌,2.8,��
2024/03/16,17:40,0.506,0.771,0.484,0.954,0.681,0.314,0.550,0.517,��쓌,3.0,��
2024/03/16,17:50,0.505,0.771,0.485,0.955,0.679,0.313,0.550,0.516,��쓌,3.5,��
2024/03/16,18:00,0.505,0.767,0.485,0.953,0.682,0.312,0.552,0.518,��,4.0,��
2024/03/16,18:10,0.507,0.771,0.484,0.953,0.678,0.312,0.551,0.517,��,3.9,��
2024/03/16,18:20,0.506,0.769,0.482,0.955,0.681,0.311,0.551,0.517,��,3.3,��
2024/03/16,18:30,0.505,0.769,0.483,0.954,0.681,0.312,0.550,0.516,��,3.5,��
2024/03/16,18:40,0.507,0.770,0.481,0.955,0.678,0.310,0.551,0.517,��,3.7,��
2024/03/16,18:50,0.507,0.771,0.484,0.954,0.681,0.313,0.550,0.515,��,4.3,��
2024/03/16,19:00,0.507,0.768,0.483,0.953,0.680,0.311,0.550,0.516,��,4.4,��
2024/03/16,19:10,0.506,0.769,0.483,0.955,0.681,0.312,0.551,0.518,��쐼,3.5,��
2024/03/16,19:20,0.507,0.769,0.484,0.953,0.681,0.312,0.550,0.517,��,5.9,��
2024/03/16,19:30,0.506,0.769,0.483,0.955,0.679,0.312,0.549,0.516,��,4.8,��
2024/03/16,19:40,0.506,0.771,0.484,0.954,0.680,0.311,0.549,0.517,��,1.9,��
2024/03/16,19:50,0.506,0.769,0.485,0.956,0.679,0.312,0.550,0.517,��,4.7,��
2024/03/16,20:00,0.507,0.768,0.483,0.954,0.680,0.311,0.551,0.516,��,2.0,��
2024/03/16,20:10,0.505,0.769,0.484,0.953,0.678,0.312,0.551,0.516,��,5.3,��
2024/03/16,20:20,0.506,0.768,0.484,0.955,0.680,0.312,0.550,0.516,��,6.8,��
2024/03/16,20:30,0.505,0.769,0.483,0.953,0.680,0.312,0.550,0.517,��쐼,7.4,��
2024/03/16,20:40,0.507,0.769,0.482,0.954,0.679,0.312,0.550,0.516,��쐼,7.0,��
2024/03/16,20:50,0.506,0.769,0.483,0.956,0.681,0.313,0.551,0.516,��쐼,6.5,��
2024/03/16,21:00,0.506,0.769,0.485,0.956,0.680,0.312,0.549,0.517,��쐼,6.2,��
2024/03/16,21:10,0.506,0.767,0.483,0.954,0.681,0.311,0.550,0.516,��쐼,5.9,��
2024/03/16,21:20,0.507,0.769,0.484,0.954,0.680,0.311,0.549,0.517,��쐼,5.8,��
2024/03/16,21:30,0.505,0.767,0.483,0.956,0.678,0.313,0.551,0.517,��쐼,5.9,��
2024/03/16,21:40,0.506,0.767,0.483,0.955,0.681,0.312,0.551,0.517,��쐼,4.6,��
2024/03/16,21:50,0.505,0.769,0.484,0.953,0.679,0.310,0.552,0.516,�쐼,4.5,��
2024/03/16,22:00,0.505,0.768,0.483,0.953,0.679,0.312,0.551,0.517,��쐼,5.1,��
2024/03/16,22:10,0.506,0.767,0.484,0.955,0.676,0.311,0.551,0.518,��쐼,5.0,��
2024/03/16,22:20,0.504,0.768,0.484,0.954,0.681,0.312,0.550,0.517,��쐼,4.8,��
2024/03/16,22:30,0.506,0.768,0.483,0.955,0.682,0.310,0.550,0.518,��쐼,4.9,��
2024/03/16,22:40,0.505,0.769,0.483,0.953,0.679,0.313,0.551,0.516,��쐼,5.3,��
2024/03/16,22:50,0.508,0.768,0.483,0.954,0.678,0.311,0.550,0.517,��쐼,4.9,��
2024/03/16,23:00,0.505,0.768,0.483,0.954,0.679,0.312,0.551,0.517,��쐼,4.7,��
2024/03/16,23:10,0.506,0.770,0.483,0.955,0.679,0.311,0.551,0.516,��쐼,4.7,��
2024/03/16,23:20,0.506,0.769,0.483,0.954,0.681,0.311,0.550,0.517,��,4.9,��
2024/03/16,23:30,0.507,0.769,0.483,0.953,0.680,0.313,0.551,0.516,��,4.6,��
2024/03/16,23:40,0.506,0.767,0.483,0.954,0.679,0.313,0.552,0.517,��,4.6,��
2024/03/16,23:50,0.507,0.768,0.483,0.954,0.679,0.312,0.551,0.518,��,4.0,��
